DMSP 5D-2 F11 DEB, 28319

Orbit data source: Space-Track

DMSP 5D-2 F11 DEB, 28319 is space debris in SSO originally from a launch on Thu, 28 Nov 1991 UTC launched from the Air Force Western Test Range (AFWTR). Debris objects in space refer to the collection of defunct objects orbiting the Earth. Examples of debris include non-operational satellites, rocket bodies, and fragments generated from explosions, collisions, or faulty payload assembly.

Loading next visibility...
Identifier
28319, 1991-082AG
Orbit
SSO
Country
Flag of USUS
Related business
Manufacturer
Unknown
Mission
Spacecraft
Bus & Motor
Unknown
Mass
Unknown
Launch date (UTC)
1991-11-28 (35 years ago)
Launch vehicle
Unknown
Launch site
Air Force Western Test Range (AFWTR)
Object type
Payload
Rocket body
Debris
Shape & HBR
Unknown shape, 0.1 m
Radar Cross Section
Medium (>0.1 m² and <1 m²)

Expand to show TLE details & history
Last TLE update: 12 hours ago

TLE from 12 hours ago
0 DMSP 5D-2 F11 DEB
1 28319U 91082AG  26199.78119639  .00019295  00000-0  17480-2 0  9992
2 28319  98.7540 320.4032 0018861 104.3294 256.0019 14.95285538157005
Epoch: 2026-07-18T18:44Z
TLE epoch observation values (Epoch: 2026-07-18T18:44:55.368Z)
Latitude
-0.00002°
Longitude
102.58348°
Altitude
587.701 km
Speed
7.565 km/s
True Right ascension
21h 21m 36s
True Declination
0° 00' 00"
Sunlit
Object was in full shadow at epoch
Visualization orbit readout
Latitude
Unknown
Longitude
Unknown
Altitude
Unknown
Speed
Unknown
Apparent Right ascension
Unknown
Apparent Declination
Unknown
Sunlit
N/A
Visualization observer readout
Local Sidereal Time
19:44:20
Azimuth
Unknown
Elevation
Unknown
Doppler factor
Unknown
Orbital elements
Apogee altitude
591.669 km
Perigee altitude
565.427 km
Semi-major axis
6,956.685 km
Eccentricity
0.00189
Inclination
98.754°
RAAN
320.4032°
Arg. of periapsis
104.3294°
True anomaly
255.79231°
Mean anomaly
256.0019°
Eccentric anomaly
255.89709°
Mean motion
3.74059 °/min
Orbital period
96.24 mins
BSTAR
0.001748
Loading maneuver chart data...
Computing Atmospheric mass density...

Documentation

Showing up to 5 results
|